Weather History for KRNH - January, 2014

Change the Weather History Date:

Tuesday, January 21, 2014

  Actual Average (KMSP) Record (KMSP)
Temperature  
Mean Temperature -10 °F 15 °F  
Max Temperature 1 °F 24 °F 48 °F (1900)
Min Temperature -20 °F 7 °F -41 °F (1888)
Degree Days  
Heating Degree Days 74 50  
Month to date heating degree days 1044  
Since 1 July heating degree days 4067  
Cooling Degree Days 0 0  
Month to date cooling degree days 0  
Year to date cooling degree days 0  
Moisture  
Dew Point -16 °F    
Average Humidity 68    
Maximum Humidity 82    
Minimum Humidity 55    
Precipitation  
Precipitation 0.00 in 0.03 in 0.81 in (1917)
Month to date precipitation 0.63  
Year to date precipitation 0.63  
Snow  
Snow 0.00 in 0.40 in 15.80 in (1917)
Month to date snowfall 8.4  
Since 1 July snowfall 30.2  
Snow Depth -    
Sea Level Pressure  
Sea Level Pressure 30.25 in    
Wind  
Wind Speed 6 mph (SSW)    
Max Wind Speed 12 mph    
Max Gust Speed 16 mph    
Visibility 8 miles    
Events Snow    
T = Trace of Precipitation, MM = Missing Value Source: NWS Daily Summary

Daily Weather History Graph

Daily Weather History Graph

Search for Another Location

Airport or City:

Trip Planner

Search our weather history database for the weather conditions in past years. The results will help you decide how hot, cold, wet, or windy it might be!

Date:

Astronomy

Jan. 21, 2014 Rise Set
Actual Time 7:41 AM CST 5:02 PM CST
Civil Twilight 7:08 AM CST 5:34 PM CST
Nautical Twilight 6:32 AM CST 6:10 PM CST
Astronomical Twilight 5:57 AM CST 6:45 PM CST
Moon 10:53 PM CST (1/21) 9:55 AM CST (1/21)
Length of Visible Light 10h 25m
Length of Day
9h 21m
Waning Gibbous, 74% of the Moon is Illuminated
Jan 21
Waning Gibbous
Jan 23
Last Quarter
Jan 30
New
Feb 6
First Quarter
Feb 14
Full

Hourly Weather History & Observations

Time (CST) Temp. Windchill Dew Point Humidity Pressure Visibility Wind Dir Wind Speed Gust Speed Precip Events Conditions
12:15 AM -7.1 °F -25.0 °F -19.5 °F 55% 30.41 in 10.0 mi NNW 10.4 mph - N/A   Clear
12:35 AM -7.8 °F -23.6 °F -19.7 °F 56% 30.40 in 10.0 mi North 8.1 mph - N/A   Clear
12:55 AM -8.5 °F -23.2 °F -20.0 °F 57% 30.41 in 10.0 mi NNW 6.9 mph - N/A   Clear
1:15 AM -8.7 °F -21.9 °F -20.2 °F 57% 30.41 in 10.0 mi NNW 5.8 mph - N/A   Clear
1:35 AM -9.9 °F -27.5 °F -21.1 °F 58% 30.40 in 10.0 mi NNW 9.2 mph - N/A   Clear
1:55 AM -11.2 °F -29.0 °F -21.5 °F 60% 30.41 in 10.0 mi NNW 9.2 mph - N/A   Clear
2:15 AM -10.7 °F -29.5 °F -20.9 °F 61% 30.42 in 10.0 mi NNW 10.4 mph - N/A   Clear
2:35 AM -12.3 °F -27.7 °F -21.5 °F 64% 30.42 in 10.0 mi NNW 6.9 mph - N/A   Clear
2:55 AM -13.2 °F -30.2 °F -22.4 °F 64% 30.43 in 10.0 mi NNW 8.1 mph - N/A   Clear
3:15 AM -13.0 °F -27.0 °F -21.6 °F 65% 30.42 in 10.0 mi NW 5.8 mph - N/A   Clear
3:35 AM -12.8 °F -22.5 °F -21.8 °F 64% 30.42 in 10.0 mi WNW 3.5 mph - N/A   Clear
3:55 AM -12.5 °F -22.1 °F -20.9 °F 66% 30.42 in 10.0 mi NW 3.5 mph - N/A   Clear
4:15 AM -13.7 °F -25.9 °F -22.4 °F 65% 30.42 in 10.0 mi NW 4.6 mph - N/A   Clear
4:35 AM -13.9 °F -28.1 °F -22.2 °F 66% 30.42 in 10.0 mi WNW 5.8 mph - N/A   Clear
4:55 AM -13.2 °F -25.3 °F -21.5 °F 67% 30.42 in 10.0 mi NW 4.6 mph - N/A   Clear
5:15 AM -15.2 °F - -24.2 °F 64% 30.42 in 10.0 mi Calm Calm - N/A   Clear
5:35 AM -15.5 °F -28.0 °F -22.7 °F 70% 30.41 in 10.0 mi NW 4.6 mph - N/A   Clear
5:55 AM -18.4 °F - -24.7 °F 73% 30.40 in 10.0 mi Calm Calm - N/A   Clear
6:15 AM -16.1 °F -26.2 °F -23.6 °F 69% 30.39 in 10.0 mi NW 3.5 mph - N/A   Clear
6:35 AM -18.4 °F - -24.3 °F 74% 30.37 in 10.0 mi Calm Calm - N/A   Clear
6:55 AM -17.1 °F - -23.8 °F 72% 30.37 in 10.0 mi Calm Calm - N/A   Clear
7:15 AM -19.3 °F - -25.8 °F 72% 30.39 in 10.0 mi Calm Calm - N/A   Clear
7:35 AM -20.6 °F - -27.0 °F 72% 30.38 in 10.0 mi Calm Calm - N/A   Clear
7:55 AM -19.7 °F - -26.1 °F 72% 30.38 in 10.0 mi Calm Calm - N/A   Clear
8:15 AM -17.1 °F -27.4 °F -23.4 °F 73% 30.36 in 10.0 mi SW 3.5 mph - N/A   Clear
8:35 AM -17.9 °F -30.7 °F -24.7 °F 71% 30.37 in 10.0 mi WSW 4.6 mph - N/A   Clear
8:55 AM -16.8 °F -27.0 °F -24.0 °F 70% 30.36 in 10.0 mi WSW 3.5 mph - N/A   Clear
9:15 AM -15.2 °F - -23.1 °F 67% 30.35 in 10.0 mi Calm Calm - N/A   Clear
9:35 AM -14.1 °F - -22.0 °F 68% 30.35 in 10.0 mi Calm Calm - N/A   Clear
9:55 AM -12.8 °F -24.9 °F -21.5 °F 65% 30.35 in 10.0 mi West 4.6 mph - N/A   Clear
10:15 AM -10.7 °F -20.0 °F -20.6 °F 62% 30.36 in 10.0 mi West 3.5 mph - N/A   Clear
10:55 AM -9.8 °F - -20.4 °F 60% 30.35 in 10.0 mi Calm Calm - N/A   Clear
11:15 AM -9.4 °F -18.6 °F -20.2 °F 59% 30.34 in 10.0 mi WSW 3.5 mph - N/A   Clear
11:35 AM -8.0 °F - -19.1 °F 58% 30.32 in 10.0 mi Calm Calm - N/A   Clear
11:55 AM -6.2 °F -14.9 °F -17.9 °F 57% 30.31 in 10.0 mi South 3.5 mph - N/A   Mostly Cloudy
12:15 PM -5.6 °F -19.7 °F -17.3 °F 57% 30.30 in 10.0 mi SSW 6.9 mph - N/A   Scattered Clouds
12:35 PM -4.4 °F - -15.9 °F 58% 30.29 in 10.0 mi Calm Calm - N/A   Scattered Clouds
12:55 PM -3.8 °F -16.1 °F -15.3 °F 58% 30.26 in 10.0 mi South 5.8 mph - N/A   Scattered Clouds
1:15 PM -4.0 °F -16.3 °F -15.5 °F 58% 30.24 in 10.0 mi SSE 5.8 mph - N/A   Mostly Cloudy
1:35 PM -3.5 °F -17.1 °F -14.8 °F 58% 30.23 in 10.0 mi SSE 6.9 mph - N/A   Overcast
1:55 PM -2.4 °F -14.4 °F -13.9 °F 58% 30.22 in 10.0 mi South 5.8 mph - N/A   Mostly Cloudy
2:15 PM -2.6 °F -12.9 °F -13.9 °F 59% 30.22 in 10.0 mi South 4.6 mph - N/A   Mostly Cloudy
2:35 PM -2.6 °F -16.0 °F -13.4 °F 60% 30.20 in 10.0 mi South 6.9 mph - N/A   Overcast
2:55 PM -2.4 °F -14.4 °F -13.2 °F 60% 30.19 in 10.0 mi South 5.8 mph - N/A   Overcast
3:15 PM -2.2 °F -16.8 °F -13.0 °F 60% 30.18 in 10.0 mi South 8.1 mph - N/A   Overcast
3:35 PM -2.2 °F -18.9 °F -13.2 °F 60% 30.17 in 10.0 mi South 10.4 mph - N/A   Overcast
3:55 PM -1.7 °F -17.3 °F -12.3 °F 61% 30.17 in 10.0 mi South 9.2 mph - N/A   Overcast
4:15 PM -1.5 °F -14.7 °F -12.3 °F 60% 30.17 in 10.0 mi SSE 6.9 mph - N/A   Overcast
4:35 PM -1.5 °F -13.3 °F -12.1 °F 61% 30.16 in 10.0 mi South 5.8 mph - N/A   Overcast
4:55 PM -1.3 °F -13.1 °F -11.4 °F 62% 30.16 in 10.0 mi South 5.8 mph - N/A   Overcast
5:15 PM -1.7 °F -13.5 °F -9.4 °F 70% 30.14 in 2.5 mi SSE 5.8 mph - N/A Snow Light Snow
5:35 PM -2.2 °F -12.5 °F -8.5 °F 75% 30.14 in 3.0 mi SE 4.6 mph - N/A Snow Light Snow
5:55 PM -2.6 °F -10.8 °F -8.1 °F 77% 30.14 in 7.0 mi SSE 3.5 mph - N/A Snow Light Snow
6:15 PM -2.4 °F -10.6 °F -7.8 °F 78% 30.14 in 5.0 mi SSE 3.5 mph - N/A Snow Light Snow
6:35 PM -1.7 °F -13.5 °F -7.6 °F 76% 30.14 in 7.0 mi SSE 5.8 mph - N/A Snow Light Snow
6:55 PM -1.5 °F -13.3 °F -7.1 °F 77% 30.13 in 7.0 mi South 5.8 mph - N/A Snow Light Snow
7:15 PM -1.5 °F -17.1 °F -7.2 °F 77% 30.11 in 7.0 mi South 9.2 mph - N/A Snow Light Snow
7:35 PM -1.5 °F -16.0 °F -7.4 °F 76% 30.10 in 7.0 mi South 8.1 mph - N/A Snow Light Snow
7:55 PM -1.5 °F -16.0 °F -7.6 °F 75% 30.09 in 10.0 mi SSE 8.1 mph - N/A Snow Light Snow
8:15 PM -1.3 °F -16.8 °F -7.2 °F 76% 30.06 in 7.0 mi South 9.2 mph - N/A Snow Light Snow
8:35 PM -1.3 °F -18.7 °F -6.7 °F 78% 30.04 in 3.0 mi South 11.5 mph 16.1 mph N/A Snow Light Snow
8:55 PM -0.8 °F -17.2 °F -6.0 °F 79% 30.04 in 3.0 mi South 10.4 mph - N/A Snow Light Snow
9:15 PM -0.6 °F -13.6 °F -5.4 °F 80% 30.04 in 2.5 mi South 6.9 mph - N/A Snow Light Snow
9:35 PM -0.4 °F -14.7 °F -5.3 °F 80% 30.03 in 4.0 mi South 8.1 mph - N/A Snow Light Snow
9:55 PM -0.4 °F -14.7 °F -5.1 °F 81% 30.02 in 3.0 mi South 8.1 mph - N/A Snow Light Snow
10:15 PM -0.0 °F -11.6 °F -4.4 °F 82% 30.01 in 3.0 mi South 5.8 mph - N/A Snow Light Snow
10:35 PM 0.3 °F -9.5 °F -4.0 °F 82% 30.00 in 3.0 mi South 4.6 mph - N/A Snow Light Snow
10:55 PM 0.5 °F -9.3 °F -4.0 °F 81% 30.00 in 3.0 mi South 4.6 mph - N/A Snow Light Snow
11:15 PM 1.0 °F -6.7 °F -3.3 °F 82% 30.00 in 4.0 mi South 3.5 mph - N/A Snow Light Snow
11:35 PM 1.8 °F -9.5 °F -2.7 °F 81% 29.99 in 4.0 mi South 5.8 mph - N/A Snow Light Snow
11:55 PM 1.9 °F -9.2 °F -2.6 °F 81% 29.98 in 4.0 mi South 5.8 mph - N/A Snow Light Snow